Ponca City, OK

4:09 AM CDT on May 23, 2017 (GMT -0500)
Ponca City Municipal

Weather History for KPNC - January, 2013

Change the Weather History Date:

Thursday, January 10, 2013

  Actual Average Record
Temperature  
Mean Temperature 48 °F -  
Max Temperature 53 °F 41 °F 64 °F (2017)
Min Temperature 44 °F 22 °F 3 °F (1962)
Degree Days  
Heating Degree Days 16    
Moisture  
Dew Point 47 °F    
Average Humidity 93    
Maximum Humidity 100    
Minimum Humidity 77    
Precipitation  
Precipitation 0.13 in - - ()
Sea Level Pressure  
Sea Level Pressure 29.89 in    
Wind  
Wind Speed 9 mph (ESE)    
Max Wind Speed 16 mph    
Max Gust Speed 23 mph    
Visibility 5 miles    
Events Rain    
Averages and records for this station are not official NWS values.
T = Trace of Precipitation, MM = Missing Value Source: NWS Daily Summary

Daily Weather History Graph

Daily Weather History Graph

Search for Another Location

Airport or City:

Trip Planner

Search our weather history database for the weather conditions in past years. The results will help you decide how hot, cold, wet, or windy it might be!

Date:

Astronomy

Jan. 10, 2013 Rise Set
Actual Time 7:41 AM CST 5:31 PM CST
Civil Twilight 7:12 AM CST 5:59 PM CST
Nautical Twilight 6:40 AM CST 6:31 PM CST
Astronomical Twilight 6:09 AM CST 7:03 PM CST
Moon 6:22 AM CST (1/10) 4:40 PM CST (1/10)
Length of Visible Light 10h 47m
Length of Day
9h 50m
Waning Crescent, 2% of the Moon is Illuminated
Jan 10
Waning Crescent
Jan 11
New
Jan 18
First Quarter
Jan 26
Full
Feb 3
Last Quarter

Hourly Weather History & Observations

Time (CST) Temp. Windchill Dew Point Humidity Pressure Visibility Wind Dir Wind Speed Gust Speed Precip Events Conditions
12:33 AM 46.4 °F 40.7 °F 41.0 °F 81% 30.15 in 5.0 mi East 12.7 mph - 0.00 in Rain Light Rain
12:53 AM 46.9 °F - 39.9 °F 77% 30.13 in 10.0 mi ENE 13.8 mph 23.0 mph 0.00 in   Overcast
1:53 AM 46.9 °F - 41.0 °F 80% 30.12 in 9.0 mi East 12.7 mph - 0.01 in Rain Light Rain
2:53 AM 46.0 °F 39.9 °F 41.0 °F 83% 30.09 in 10.0 mi East 13.8 mph - 0.03 in Rain Light Rain
3:53 AM 45.0 °F 37.9 °F 42.1 °F 90% 30.06 in 7.0 mi East 16.1 mph - 0.03 in Rain Light Rain
4:53 AM 45.0 °F 38.9 °F 42.1 °F 90% 29.99 in 10.0 mi East 12.7 mph - 0.00 in   Overcast
5:17 AM 44.6 °F 38.8 °F 42.8 °F 93% 30.00 in 5.0 mi East 11.5 mph 19.6 mph 0.00 in Rain Light Rain
5:53 AM 46.4 °F 41.5 °F 42.8 °F 87% 29.99 in 10.0 mi East 10.4 mph - N/A Rain Light Rain
6:40 AM 46.4 °F 40.4 °F 44.6 °F 93% 29.98 in 6.0 mi East 13.8 mph - 0.00 in   Overcast
6:53 AM 46.0 °F 40.6 °F 44.1 °F 93% 29.97 in 5.0 mi East 11.5 mph - 0.00 in   Overcast
7:53 AM 46.0 °F 39.9 °F 44.1 °F 93% 29.97 in 9.0 mi East 13.8 mph - N/A   Overcast
8:07 AM 46.4 °F 41.5 °F 44.6 °F 93% 29.97 in 2.0 mi East 10.4 mph - 0.02 in Rain Light Rain
8:16 AM 46.4 °F 41.5 °F 44.6 °F 93% 29.97 in 3.0 mi East 10.4 mph - 0.02 in Rain Light Rain
8:23 AM 46.4 °F 42.4 °F 44.6 °F 93% 29.97 in 1.8 mi East 8.1 mph - N/A Rain Light Rain
8:53 AM 46.0 °F 41.9 °F 44.1 °F 93% 29.96 in 2.5 mi East 8.1 mph - 0.04 in Rain Light Rain
9:01 AM 46.4 °F 41.9 °F 44.6 °F 93% 29.95 in 5.0 mi East 9.2 mph - 0.00 in   Overcast
9:53 AM 46.9 °F - 45.0 °F 93% 29.94 in 3.0 mi East 6.9 mph - 0.00 in   Overcast
10:00 AM 46.4 °F 41.9 °F 44.6 °F 93% 29.93 in 2.5 mi East 9.2 mph - N/A   Overcast
10:26 AM 46.4 °F 42.4 °F 44.6 °F 93% 29.92 in 3.0 mi East 8.1 mph - N/A   Overcast
10:53 AM 48.0 °F - 46.0 °F 93% 29.91 in 4.0 mi East 8.1 mph - N/A   Overcast
11:07 AM 48.2 °F - 46.4 °F 93% 29.92 in 2.0 mi East 5.8 mph - 0.00 in Rain Light Rain
11:43 AM 48.2 °F - 46.4 °F 93% 29.89 in 3.0 mi ESE 5.8 mph - N/A Rain Light Rain
11:53 AM 48.9 °F - 48.0 °F 97% 29.88 in 2.5 mi ESE 6.9 mph - 0.02 in Rain Light Rain
12:13 PM 50.0 °F - 48.2 °F 94% 29.88 in 5.0 mi SE 9.2 mph - 0.00 in   Overcast
12:53 PM 50.0 °F - 48.9 °F 96% 29.84 in 2.5 mi SE 9.2 mph - 0.00 in   Overcast
1:03 PM 51.8 °F - 48.2 °F 88% 29.84 in 4.0 mi SE 6.9 mph - N/A   Overcast
1:53 PM 52.0 °F - 50.0 °F 93% 29.81 in 10.0 mi SSE 6.9 mph - N/A   Overcast
2:53 PM 53.1 °F - 51.1 °F 93% 29.80 in 8.0 mi Variable 3.5 mph - N/A   Overcast
3:27 PM 53.6 °F - 51.8 °F 94% 29.79 in 2.5 mi Calm Calm - N/A   Overcast
3:39 PM 53.6 °F - 51.8 °F 94% 29.79 in 5.0 mi Calm Calm - N/A   Overcast
3:53 PM 53.1 °F - 51.1 °F 93% 29.80 in 7.0 mi SSE 3.5 mph - N/A   Overcast
4:53 PM 53.1 °F - 52.0 °F 96% 29.81 in 8.0 mi Calm Calm - N/A   Overcast
5:53 PM 53.1 °F - 51.1 °F 93% 29.80 in 4.0 mi WSW 3.5 mph - 0.00 in   Overcast
6:18 PM 51.8 °F - 51.8 °F 100% 29.80 in 2.5 mi Calm Calm - N/A   Overcast
6:53 PM 52.0 °F - 50.0 °F 93% 29.79 in 2.5 mi West 4.6 mph - 0.00 in   Overcast
7:05 PM 51.8 °F - 51.8 °F 100% 29.79 in 1.2 mi Calm Calm - N/A   Overcast
7:17 PM 51.8 °F - 51.8 °F 100% 29.80 in 0.8 mi West 4.6 mph - N/A   Mist
7:51 PM 51.8 °F - 50.0 °F 94% 29.81 in 1.0 mi WSW 5.8 mph - N/A   Mist
7:53 PM 51.1 °F - 50.0 °F 96% 29.81 in 1.0 mi West 4.6 mph - N/A   Mist
8:11 PM 51.8 °F - 50.0 °F 94% 29.80 in 2.5 mi West 4.6 mph - 0.00 in   Overcast
8:35 PM 51.8 °F - 50.0 °F 94% 29.80 in 4.0 mi Calm Calm - 0.00 in   Overcast
8:53 PM 50.0 °F - 48.9 °F 96% 29.80 in 4.0 mi West 4.6 mph - 0.00 in   Overcast
9:53 PM 50.0 °F - 48.0 °F 93% 29.79 in 4.0 mi Calm Calm - N/A   Overcast
10:23 PM 50.0 °F - 48.2 °F 94% 29.78 in 4.0 mi Calm Calm - N/A   Overcast
10:53 PM 50.0 °F - 48.0 °F 93% 29.81 in 8.0 mi SSW 9.2 mph - N/A   Overcast
11:07 PM 50.0 °F - 48.2 °F 94% 29.81 in 8.0 mi SSW 12.7 mph 20.7 mph N/A   Overcast
11:37 PM 50.0 °F - 48.2 °F 94% 29.81 in 9.0 mi SSW 8.1 mph - N/A   Overcast
11:53 PM 50.0 °F - 48.0 °F 93% 29.80 in 7.0 mi SSW 13.8 mph 19.6 mph N/A   Overcast